Вернуться в каталог

COSMOS 2251 DEB

АктивенLEO
NORAD 33841·DEBRIS·🇷🇺 Russia

Запущен Jun 16, 1993 с Plesetsk Cosmodrome

Loading…

Ближайшие Пролёты (ближайшие 24 часа)

TLE

СвежийSource: Space-Track

Эпоха: Sep 14, 2026, 09:16 UTC

1 33841U 93036CJ  26257.38661686  .00000308  00000-0  11005-3 0  9997
2 33841  74.0369 130.3886 0020379 149.9366  25.1872 14.38164089920761

Отслеживайте COSMOS 2251 DEB в реальном времени с AllMySat

Download on the App Store